Time,TemperatureF,DewpointF,PressureIn,WindDirection,WindDirectionDegrees,WindSpeedMPH,WindSpeedGustMPH,Humidity,HourlyPrecipIn,Conditions,Clouds,dailyrainin,SoftwareType,DateUTC
2013-08-25 00:02:00,57.9,52.5,29.91,NNW,336,0.0,0.0,82,0.00,,,0.00,WUHU216DAVISVP2,2013-08-25 07:02:00,
2013-08-25 00:07:00,57.8,52.4,29.91,NNW,336,0.0,0.0,82,0.00,,,0.00,WUHU216DAVISVP2,2013-08-25 07:07:00,
2013-08-25 00:12:00,57.6,52.5,29.91,NNW,336,0.0,0.0,83,0.00,,,0.00,WUHU216DAVISVP2,2013-08-25 07:12:00,
2013-08-25 00:17:00,57.5,52.4,29.91,NNW,336,0.0,0.0,83,0.00,,,0.00,WUHU216DAVISVP2,2013-08-25 07:17:00,
2013-08-25 00:22:00,57.3,52.2,29.91,NNW,336,0.0,1.0,83,0.00,,,0.00,WUHU216DAVISVP2,2013-08-25 07:22:00,
2013-08-25 00:27:00,57.3,52.2,29.91,NNW,336,0.0,1.0,83,0.00,,,0.00,WUHU216DAVISVP2,2013-08-25 07:27:00,
2013-08-25 00:32:00,57.3,52.2,29.91,NNW,336,0.0,0.0,83,0.00,,,0.00,WUHU216DAVISVP2,2013-08-25 07:32:00,
2013-08-25 00:37:00,57.3,52.2,29.91,NNW,336,0.0,0.0,83,0.00,,,0.00,WUHU216DAVISVP2,2013-08-25 07:37:00,
2013-08-25 00:42:00,57.3,52.2,29.91,NNW,336,0.0,0.0,83,0.00,,,0.00,WUHU216DAVISVP2,2013-08-25 07:42:00,
2013-08-25 00:47:00,57.2,52.1,29.91,NNW,336,0.0,0.0,83,0.00,,,0.00,WUHU216DAVISVP2,2013-08-25 07:47:00,
2013-08-25 00:52:00,57.3,52.2,29.91,NNW,336,0.0,0.0,83,0.00,,,0.00,WUHU216DAVISVP2,2013-08-25 07:52:00,
2013-08-25 00:57:00,57.3,52.2,29.91,NNW,336,0.0,0.0,83,0.00,,,0.00,WUHU216DAVISVP2,2013-08-25 07:57:00,
2013-08-25 01:02:00,57.2,52.1,29.91,NNW,336,0.0,0.0,83,0.00,,,0.00,WUHU216DAVISVP2,2013-08-25 08:02:00,
2013-08-25 01:07:00,57.3,52.2,29.91,NNW,336,0.0,0.0,83,0.00,,,0.00,WUHU216DAVISVP2,2013-08-25 08:07:00,
2013-08-25 01:12:00,57.3,52.2,29.91,NNW,336,0.0,0.0,83,0.00,,,0.00,WUHU216DAVISVP2,2013-08-25 08:12:00,
2013-08-25 01:17:00,57.1,52.0,29.91,NNW,336,0.0,0.0,83,0.00,,,0.00,WUHU216DAVISVP2,2013-08-25 08:17:00,
2013-08-25 01:22:00,56.8,51.7,29.92,NNW,336,0.0,0.0,83,0.00,,,0.00,WUHU216DAVISVP2,2013-08-25 08:22:00,
2013-08-25 01:27:00,56.7,51.9,29.92,NNW,336,0.0,0.0,84,0.00,,,0.00,WUHU216DAVISVP2,2013-08-25 08:27:00,
2013-08-25 01:32:00,56.6,52.1,29.92,NNW,336,0.0,0.0,85,0.00,,,0.00,WUHU216DAVISVP2,2013-08-25 08:32:00,
2013-08-25 01:37:00,56.6,51.8,29.92,NNW,336,0.0,0.0,84,0.00,,,0.00,WUHU216DAVISVP2,2013-08-25 08:37:00,
2013-08-25 01:42:00,56.5,51.7,29.92,NNW,336,0.0,0.0,84,0.00,,,0.00,WUHU216DAVISVP2,2013-08-25 08:42:00,
2013-08-25 01:47:00,56.3,51.8,29.92,NNW,336,0.0,0.0,85,0.00,,,0.00,WUHU216DAVISVP2,2013-08-25 08:47:00,
2013-08-25 01:52:00,56.1,51.7,29.92,NNW,336,0.0,0.0,85,0.00,,,0.00,WUHU216DAVISVP2,2013-08-25 08:52:00,
2013-08-25 01:57:00,55.9,51.8,29.92,NNW,336,0.0,0.0,86,0.00,,,0.00,WUHU216DAVISVP2,2013-08-25 08:57:00,
2013-08-25 02:02:00,55.8,51.7,29.92,NNW,336,0.0,0.0,86,0.00,,,0.00,WUHU216DAVISVP2,2013-08-25 09:02:00,
2013-08-25 02:07:00,55.8,52.0,29.93,NNW,336,0.0,0.0,87,0.00,,,0.00,WUHU216DAVISVP2,2013-08-25 09:07:00,
2013-08-25 02:12:00,55.7,51.9,29.92,NNW,336,0.0,0.0,87,0.00,,,0.00,WUHU216DAVISVP2,2013-08-25 09:12:00,
2013-08-25 02:17:00,55.7,51.9,29.92,NNW,336,0.0,0.0,87,0.00,,,0.00,WUHU216DAVISVP2,2013-08-25 09:17:00,
2013-08-25 02:22:00,55.5,51.4,29.92,NNW,336,0.0,0.0,86,0.00,,,0.00,WUHU216DAVISVP2,2013-08-25 09:22:00,
2013-08-25 02:27:00,55.4,51.6,29.92,NNW,336,0.0,0.0,87,0.00,,,0.00,WUHU216DAVISVP2,2013-08-25 09:27:00,
2013-08-25 02:32:00,55.3,51.5,29.92,NNW,336,0.0,0.0,87,0.00,,,0.00,WUHU216DAVISVP2,2013-08-25 09:32:00,
2013-08-25 02:37:00,55.2,51.4,29.92,NNW,336,0.0,0.0,87,0.00,,,0.00,WUHU216DAVISVP2,2013-08-25 09:37:00,
2013-08-25 02:42:00,55.2,51.7,29.92,NNW,336,0.0,0.0,88,0.00,,,0.00,WUHU216DAVISVP2,2013-08-25 09:42:00,
2013-08-25 02:47:00,55.2,51.4,29.92,NNW,336,0.0,0.0,87,0.00,,,0.00,WUHU216DAVISVP2,2013-08-25 09:47:00,
2013-08-25 02:52:00,55.3,51.5,29.92,NNW,336,0.0,0.0,87,0.00,,,0.00,WUHU216DAVISVP2,2013-08-25 09:52:00,
2013-08-25 02:57:00,55.3,51.5,29.92,NNW,336,0.0,0.0,87,0.00,,,0.00,WUHU216DAVISVP2,2013-08-25 09:57:00,
2013-08-25 03:02:00,55.3,51.5,29.92,NNW,336,0.0,0.0,87,0.00,,,0.00,WUHU216DAVISVP2,2013-08-25 10:02:00,
2013-08-25 03:07:00,55.3,51.5,29.92,NNW,336,0.0,0.0,87,0.00,,,0.00,WUHU216DAVISVP2,2013-08-25 10:07:00,
2013-08-25 03:12:00,55.3,51.5,29.92,NNW,336,0.0,0.0,87,0.00,,,0.00,WUHU216DAVISVP2,2013-08-25 10:12:00,
2013-08-25 03:17:00,55.3,51.5,29.93,NNW,336,0.0,1.0,87,0.00,,,0.00,WUHU216DAVISVP2,2013-08-25 10:17:00,
2013-08-25 03:22:00,55.3,51.5,29.92,NNW,336,0.0,1.0,87,0.00,,,0.00,WUHU216DAVISVP2,2013-08-25 10:22:00,
2013-08-25 03:27:00,55.2,51.1,29.92,NNW,336,0.0,0.0,86,0.00,,,0.00,WUHU216DAVISVP2,2013-08-25 10:27:00,
2013-08-25 03:32:00,55.2,51.1,29.92,NNW,336,0.0,0.0,86,0.00,,,0.00,WUHU216DAVISVP2,2013-08-25 10:32:00,
2013-08-25 03:37:00,55.1,51.0,29.92,NNW,336,0.0,2.0,86,0.00,,,0.00,WUHU216DAVISVP2,2013-08-25 10:37:00,
2013-08-25 03:42:00,55.0,50.9,29.92,NNW,336,0.0,2.0,86,0.00,,,0.00,WUHU216DAVISVP2,2013-08-25 10:42:00,
2013-08-25 03:47:00,55.0,50.9,29.92,NNW,336,0.0,1.0,86,0.00,,,0.00,WUHU216DAVISVP2,2013-08-25 10:47:00,
2013-08-25 03:52:00,55.0,51.2,29.92,NNW,336,0.0,1.0,87,0.00,,,0.00,WUHU216DAVISVP2,2013-08-25 10:52:00,
2013-08-25 03:57:00,55.0,51.2,29.92,NNW,336,0.0,0.0,87,0.00,,,0.00,WUHU216DAVISVP2,2013-08-25 10:57:00,
2013-08-25 04:02:00,55.0,51.2,29.92,NNW,336,0.0,0.0,87,0.00,,,0.00,WUHU216DAVISVP2,2013-08-25 11:02:00,
2013-08-25 04:07:00,54.9,51.1,29.92,NNW,336,0.0,0.0,87,0.00,,,0.00,WUHU216DAVISVP2,2013-08-25 11:07:00,
2013-08-25 04:12:00,54.8,51.0,29.93,NNW,336,0.0,0.0,87,0.00,,,0.00,WUHU216DAVISVP2,2013-08-25 11:12:00,
2013-08-25 04:17:00,54.8,51.0,29.93,NNW,336,0.0,0.0,87,0.00,,,0.00,WUHU216DAVISVP2,2013-08-25 11:17:00,
2013-08-25 04:22:00,54.8,51.0,29.93,NNW,336,0.0,0.0,87,0.00,,,0.00,WUHU216DAVISVP2,2013-08-25 11:22:00,
2013-08-25 04:27:00,54.8,51.0,29.93,NNW,336,0.0,0.0,87,0.00,,,0.00,WUHU216DAVISVP2,2013-08-25 11:27:00,
2013-08-25 04:32:00,54.7,50.9,29.93,NNW,336,0.0,3.0,87,0.00,,,0.00,WUHU216DAVISVP2,2013-08-25 11:32:00,
2013-08-25 04:37:00,54.8,51.0,29.92,NNW,336,0.0,3.0,87,0.00,,,0.00,WUHU216DAVISVP2,2013-08-25 11:37:00,
2013-08-25 04:42:00,54.7,50.6,29.92,NNW,336,0.0,1.0,86,0.00,,,0.00,WUHU216DAVISVP2,2013-08-25 11:42:00,
2013-08-25 04:47:00,54.7,50.6,29.92,NNW,336,0.0,0.0,86,0.00,,,0.00,WUHU216DAVISVP2,2013-08-25 11:47:00,
2013-08-25 04:52:00,54.6,50.5,29.92,NNW,336,0.0,0.0,86,0.00,,,0.00,WUHU216DAVISVP2,2013-08-25 11:52:00,
2013-08-25 04:57:00,54.5,50.7,29.92,NNW,336,0.0,0.0,87,0.00,,,0.00,WUHU216DAVISVP2,2013-08-25 11:57:00,
2013-08-25 05:02:00,54.4,50.6,29.92,NNW,336,0.0,0.0,87,0.00,,,0.00,WUHU216DAVISVP2,2013-08-25 12:02:00,
2013-08-25 05:07:00,54.4,50.9,29.92,NNW,336,0.0,0.0,88,0.00,,,0.00,WUHU216DAVISVP2,2013-08-25 12:07:00,
2013-08-25 05:12:00,54.4,50.9,29.92,NNW,336,0.0,0.0,88,0.00,,,0.00,WUHU216DAVISVP2,2013-08-25 12:12:00,
2013-08-25 05:17:00,54.3,50.8,29.92,NNW,336,0.0,0.0,88,0.00,,,0.00,WUHU216DAVISVP2,2013-08-25 12:17:00,
2013-08-25 05:22:00,54.2,50.7,29.92,NNW,336,0.0,0.0,88,0.00,,,0.00,WUHU216DAVISVP2,2013-08-25 12:22:00,
2013-08-25 05:27:00,54.1,50.6,29.92,NNW,336,0.0,0.0,88,0.00,,,0.00,WUHU216DAVISVP2,2013-08-25 12:27:00,
2013-08-25 05:32:00,54.1,50.6,29.92,NNW,336,0.0,0.0,88,0.00,,,0.00,WUHU216DAVISVP2,2013-08-25 12:32:00,
2013-08-25 05:37:00,54.0,50.5,29.92,NNW,336,0.0,0.0,88,0.00,,,0.00,WUHU216DAVISVP2,2013-08-25 12:37:00,
2013-08-25 05:42:00,53.9,50.4,29.92,NNW,336,0.0,1.0,88,0.00,,,0.00,WUHU216DAVISVP2,2013-08-25 12:42:00,
2013-08-25 05:47:00,53.8,50.6,29.92,NNW,336,0.0,1.0,89,0.00,,,0.00,WUHU216DAVISVP2,2013-08-25 12:47:00,
2013-08-25 05:52:00,53.7,50.2,29.93,NNW,336,0.0,0.0,88,0.00,,,0.00,WUHU216DAVISVP2,2013-08-25 12:52:00,
2013-08-25 05:57:00,53.6,50.1,29.93,NNW,336,0.0,0.0,88,0.00,,,0.00,WUHU216DAVISVP2,2013-08-25 12:57:00,
2013-08-25 06:02:00,53.5,50.0,29.93,NNW,336,0.0,0.0,88,0.00,,,0.00,WUHU216DAVISVP2,2013-08-25 13:02:00,
2013-08-25 06:07:00,53.6,50.1,29.93,NNW,336,0.0,0.0,88,0.00,,,0.00,WUHU216DAVISVP2,2013-08-25 13:07:00,
2013-08-25 06:12:00,53.7,50.2,29.93,NNW,336,0.0,0.0,88,0.00,,,0.00,WUHU216DAVISVP2,2013-08-25 13:12:00,
2013-08-25 06:17:00,53.6,50.1,29.93,NNW,336,0.0,0.0,88,0.00,,,0.00,WUHU216DAVISVP2,2013-08-25 13:17:00,
2013-08-25 06:22:00,53.5,50.0,29.93,NNW,336,0.0,0.0,88,0.00,,,0.00,WUHU216DAVISVP2,2013-08-25 13:22:00,
2013-08-25 06:27:00,53.5,50.0,29.93,NNW,336,0.0,0.0,88,0.00,,,0.00,WUHU216DAVISVP2,2013-08-25 13:27:00,
2013-08-25 06:32:00,53.5,50.0,29.93,NNW,336,0.0,0.0,88,0.00,,,0.00,WUHU216DAVISVP2,2013-08-25 13:32:00,
2013-08-25 06:37:00,53.4,49.9,29.93,NNW,336,0.0,0.0,88,0.00,,,0.00,WUHU216DAVISVP2,2013-08-25 13:37:00,
2013-08-25 06:42:00,53.3,49.8,29.93,NNW,336,0.0,0.0,88,0.00,,,0.00,WUHU216DAVISVP2,2013-08-25 13:42:00,
2013-08-25 06:47:00,53.4,49.9,29.94,NNW,336,0.0,0.0,88,0.00,,,0.00,WUHU216DAVISVP2,2013-08-25 13:47:00,
2013-08-25 06:52:00,53.6,50.1,29.93,NNW,336,0.0,0.0,88,0.00,,,0.00,WUHU216DAVISVP2,2013-08-25 13:52:00,
2013-08-25 06:57:00,53.7,50.2,29.94,NNW,336,0.0,0.0,88,0.00,,,0.00,WUHU216DAVISVP2,2013-08-25 13:57:00,
2013-08-25 07:02:00,53.8,50.3,29.94,NNW,336,0.0,0.0,88,0.00,,,0.00,WUHU216DAVISVP2,2013-08-25 14:02:00,
2013-08-25 07:07:00,53.8,50.0,29.94,NNW,336,0.0,0.0,87,0.00,,,0.00,WUHU216DAVISVP2,2013-08-25 14:07:00,
2013-08-25 07:12:00,53.7,49.9,29.94,NNW,336,0.0,0.0,87,0.00,,,0.00,WUHU216DAVISVP2,2013-08-25 14:12:00,
2013-08-25 07:17:00,53.7,50.2,29.94,NNW,336,0.0,0.0,88,0.00,,,0.00,WUHU216DAVISVP2,2013-08-25 14:17:00,
2013-08-25 07:22:00,53.7,50.2,29.94,NNW,336,0.0,0.0,88,0.00,,,0.00,WUHU216DAVISVP2,2013-08-25 14:22:00,
2013-08-25 07:27:00,53.7,50.2,29.94,NNW,336,0.0,0.0,88,0.00,,,0.00,WUHU216DAVISVP2,2013-08-25 14:27:00,
2013-08-25 07:32:00,53.8,50.3,29.94,NNW,336,0.0,1.0,88,0.00,,,0.00,WUHU216DAVISVP2,2013-08-25 14:32:00,
2013-08-25 07:37:00,53.9,50.4,29.94,NNW,336,0.0,1.0,88,0.00,,,0.00,WUHU216DAVISVP2,2013-08-25 14:37:00,
2013-08-25 07:42:00,54.0,50.5,29.94,NNW,336,0.0,0.0,88,0.00,,,0.00,WUHU216DAVISVP2,2013-08-25 14:42:00,
2013-08-25 07:46:00,54.2,50.7,29.93,NNW,336,0.0,0.0,88,0.00,,,0.00,WUHU216DAVISVP2,2013-08-25 14:46:00,
2013-08-25 07:51:00,54.6,51.1,29.93,NNW,336,0.0,0.0,88,0.00,,,0.00,WUHU216DAVISVP2,2013-08-25 14:51:00,
2013-08-25 07:56:00,55.0,51.5,29.94,NNW,336,0.0,0.0,88,0.00,,,0.00,WUHU216DAVISVP2,2013-08-25 14:56:00,
2013-08-25 08:01:00,55.6,51.8,29.94,NNW,336,0.0,1.0,87,0.00,,,0.00,WUHU216DAVISVP2,2013-08-25 15:01:00,
2013-08-25 08:06:00,56.4,52.6,29.94,NNW,336,0.0,2.0,87,0.00,,,0.00,WUHU216DAVISVP2,2013-08-25 15:06:00,
2013-08-25 08:11:00,57.2,52.7,29.93,NNW,336,1.0,3.0,85,0.00,,,0.00,WUHU216DAVISVP2,2013-08-25 15:11:00,
2013-08-25 08:16:00,58.1,53.0,29.93,North,350,0.0,3.0,83,0.00,,,0.00,WUHU216DAVISVP2,2013-08-25 15:16:00,
2013-08-25 08:21:00,58.7,52.9,29.93,North,360,0.0,4.0,81,0.00,,,0.00,WUHU216DAVISVP2,2013-08-25 15:21:00,
2013-08-25 08:26:00,59.2,53.1,29.93,North,360,0.0,4.0,80,0.00,,,0.00,WUHU216DAVISVP2,2013-08-25 15:26:00,
2013-08-25 08:31:00,59.8,53.7,29.93,NE,40,0.0,5.0,80,0.00,,,0.00,WUHU216DAVISVP2,2013-08-25 15:31:00,
2013-08-25 08:36:00,60.4,53.6,29.93,North,355,0.0,5.0,78,0.00,,,0.00,WUHU216DAVISVP2,2013-08-25 15:36:00,
2013-08-25 08:41:00,60.7,53.5,29.93,North,360,4.0,4.0,77,0.00,,,0.00,WUHU216DAVISVP2,2013-08-25 15:41:00,
2013-08-25 08:46:00,60.4,53.2,29.93,North,360,3.0,7.0,77,0.00,,,0.00,WUHU216DAVISVP2,2013-08-25 15:46:00,
2013-08-25 08:51:00,60.9,53.7,29.93,NNE,12,1.0,7.0,77,0.00,,,0.00,WUHU216DAVISVP2,2013-08-25 15:51:00,
2013-08-25 08:56:00,61.6,54.1,29.93,NE,36,0.0,5.0,76,0.00,,,0.00,WUHU216DAVISVP2,2013-08-25 15:56:00,
2013-08-25 09:01:00,62.0,54.1,29.92,NNE,26,0.0,5.0,75,0.00,,,0.00,WUHU216DAVISVP2,2013-08-25 16:01:00,
2013-08-25 09:06:00,62.5,54.2,29.92,NNW,331,0.0,5.0,74,0.00,,,0.00,WUHU216DAVISVP2,2013-08-25 16:06:00,
2013-08-25 09:11:00,62.8,54.1,29.92,NNW,333,0.0,5.0,73,0.00,,,0.00,WUHU216DAVISVP2,2013-08-25 16:11:00,
2013-08-25 09:16:00,63.0,54.3,29.92,NNW,337,0.0,5.0,73,0.00,,,0.00,WUHU216DAVISVP2,2013-08-25 16:16:00,
2013-08-25 09:21:00,62.9,54.2,29.92,NNW,341,2.0,7.0,73,0.00,,,0.00,WUHU216DAVISVP2,2013-08-25 16:21:00,
2013-08-25 09:26:00,62.9,54.2,29.92,NW,322,2.0,7.0,73,0.00,,,0.00,WUHU216DAVISVP2,2013-08-25 16:26:00,
2013-08-25 09:31:00,62.7,54.0,29.92,NNW,347,0.0,6.0,73,0.00,,,0.00,WUHU216DAVISVP2,2013-08-25 16:31:00,
2013-08-25 09:36:00,62.4,53.8,29.92,NNW,336,3.0,7.0,73,0.00,,,0.00,WUHU216DAVISVP2,2013-08-25 16:36:00,
2013-08-25 09:41:00,62.5,53.9,29.92,NNW,327,0.0,7.0,73,0.00,,,0.00,WUHU216DAVISVP2,2013-08-25 16:41:00,
2013-08-25 09:46:00,62.8,54.1,29.92,NNW,327,0.0,4.0,73,0.00,,,0.00,WUHU216DAVISVP2,2013-08-25 16:46:00,
2013-08-25 09:51:00,63.9,54.1,29.92,NW,326,5.0,5.0,70,0.00,,,0.00,WUHU216DAVISVP2,2013-08-25 16:51:00,
2013-08-25 09:56:00,64.3,54.5,29.92,NNW,340,0.0,5.0,70,0.00,,,0.00,WUHU216DAVISVP2,2013-08-25 16:56:00,
2013-08-25 10:01:00,64.4,54.2,29.92,NNW,339,0.0,5.0,69,0.00,,,0.00,WUHU216DAVISVP2,2013-08-25 17:01:00,
2013-08-25 10:06:00,65.1,54.4,29.92,NNW,338,4.0,5.0,68,0.00,,,0.00,WUHU216DAVISVP2,2013-08-25 17:06:00,
2013-08-25 10:11:00,65.1,54.0,29.92,NNE,18,0.0,5.0,67,0.00,,,0.00,WUHU216DAVISVP2,2013-08-25 17:11:00,
2013-08-25 10:16:00,65.8,54.3,29.92,ESE,106,0.0,5.0,66,0.00,,,0.00,WUHU216DAVISVP2,2013-08-25 17:16:00,
2013-08-25 10:21:00,66.5,54.5,29.92,North,355,0.0,5.0,65,0.00,,,0.00,WUHU216DAVISVP2,2013-08-25 17:21:00,
2013-08-25 10:26:00,66.7,54.3,29.92,WNW,298,0.0,5.0,64,0.00,,,0.00,WUHU216DAVISVP2,2013-08-25 17:26:00,
2013-08-25 10:31:00,66.9,54.5,29.92,NNW,344,1.0,6.0,64,0.00,,,0.00,WUHU216DAVISVP2,2013-08-25 17:31:00,
2013-08-25 10:36:00,66.8,54.4,29.92,NNW,342,2.0,6.0,64,0.00,,,0.00,WUHU216DAVISVP2,2013-08-25 17:36:00,
2013-08-25 10:41:00,66.5,54.1,29.92,NNW,335,0.0,9.0,64,0.00,,,0.00,WUHU216DAVISVP2,2013-08-25 17:41:00,
2013-08-25 10:46:00,66.6,54.2,29.91,NW,318,2.0,9.0,64,0.00,,,0.00,WUHU216DAVISVP2,2013-08-25 17:46:00,
2013-08-25 10:51:00,66.7,54.3,29.91,NW,318,3.0,7.0,64,0.00,,,0.00,WUHU216DAVISVP2,2013-08-25 17:51:00,
2013-08-25 10:56:00,67.1,54.3,29.91,North,360,0.0,6.0,63,0.00,,,0.00,WUHU216DAVISVP2,2013-08-25 17:56:00,
2013-08-25 11:01:00,67.6,54.3,29.91,NNW,341,6.0,9.0,62,0.00,,,0.00,WUHU216DAVISVP2,2013-08-25 18:01:00,
2013-08-25 11:06:00,67.6,54.3,29.91,NW,323,3.0,9.0,62,0.00,,,0.00,WUHU216DAVISVP2,2013-08-25 18:06:00,
2013-08-25 11:11:00,68.0,54.7,29.91,NW,309,0.0,6.0,62,0.00,,,0.00,WUHU216DAVISVP2,2013-08-25 18:11:00,
2013-08-25 11:16:00,68.3,55.0,29.91,North,355,4.0,8.0,62,0.00,,,0.00,WUHU216DAVISVP2,2013-08-25 18:16:00,
2013-08-25 11:21:00,69.2,54.9,29.91,NNW,348,0.0,8.0,60,0.00,,,0.00,WUHU216DAVISVP2,2013-08-25 18:21:00,
2013-08-25 11:26:00,69.6,54.8,29.91,North,349,0.0,6.0,59,0.00,,,0.00,WUHU216DAVISVP2,2013-08-25 18:26:00,
2013-08-25 11:31:00,69.8,55.0,29.91,NNW,341,0.0,6.0,59,0.00,,,0.00,WUHU216DAVISVP2,2013-08-25 18:31:00,
2013-08-25 11:36:00,70.1,54.8,29.90,NNW,337,0.0,9.0,58,0.00,,,0.00,WUHU216DAVISVP2,2013-08-25 18:36:00,
2013-08-25 11:41:00,70.0,55.2,29.90,NNW,333,0.0,9.0,59,0.00,,,0.00,WUHU216DAVISVP2,2013-08-25 18:41:00,
2013-08-25 11:46:00,71.2,54.8,29.90,ENE,69,3.0,6.0,56,0.00,,,0.00,WUHU216DAVISVP2,2013-08-25 18:46:00,
2013-08-25 11:51:00,71.1,54.8,29.90,NNW,336,5.0,9.0,56,0.00,,,0.00,WUHU216DAVISVP2,2013-08-25 18:51:00,
2013-08-25 11:56:00,71.3,54.4,29.90,ENE,69,0.0,9.0,55,0.00,,,0.00,WUHU216DAVISVP2,2013-08-25 18:56:00,
2013-08-25 12:01:00,70.7,53.9,29.90,NNW,338,5.0,5.0,55,0.00,,,0.00,WUHU216DAVISVP2,2013-08-25 19:01:00,
2013-08-25 12:06:00,71.1,54.2,29.90,ENE,65,0.0,7.0,55,0.00,,,0.00,WUHU216DAVISVP2,2013-08-25 19:06:00,
2013-08-25 12:11:00,71.1,54.2,29.90,East,96,0.0,7.0,55,0.00,,,0.00,WUHU216DAVISVP2,2013-08-25 19:11:00,
2013-08-25 12:16:00,70.9,54.6,29.90,North,9,0.0,3.0,56,0.00,,,0.00,WUHU216DAVISVP2,2013-08-25 19:16:00,
2013-08-25 12:21:00,71.5,54.6,29.90,North,360,0.0,4.0,55,0.00,,,0.00,WUHU216DAVISVP2,2013-08-25 19:21:00,
2013-08-25 12:26:00,71.6,54.7,29.90,NW,306,0.0,9.0,55,0.00,,,0.00,WUHU216DAVISVP2,2013-08-25 19:26:00,
2013-08-25 12:31:00,71.8,54.9,29.89,NNW,340,0.0,9.0,55,0.00,,,0.00,WUHU216DAVISVP2,2013-08-25 19:31:00,
2013-08-25 12:36:00,72.1,54.7,29.89,North,349,0.0,7.0,54,0.00,,,0.00,WUHU216DAVISVP2,2013-08-25 19:36:00,
2013-08-25 12:41:00,71.5,54.1,29.89,NNW,342,0.0,6.0,54,0.00,,,0.00,WUHU216DAVISVP2,2013-08-25 19:41:00,
2013-08-25 12:46:00,71.7,54.8,29.89,NNW,344,3.0,6.0,55,0.00,,,0.00,WUHU216DAVISVP2,2013-08-25 19:46:00,
2013-08-25 12:51:00,72.2,54.8,29.89,NNW,332,0.0,5.0,54,0.00,,,0.00,WUHU216DAVISVP2,2013-08-25 19:51:00,
2013-08-25 12:56:00,72.4,54.4,29.89,NW,304,0.0,7.0,53,0.00,,,0.00,WUHU216DAVISVP2,2013-08-25 19:56:00,
2013-08-25 13:01:00,71.6,54.2,29.89,WNW,296,1.0,14.0,54,0.00,,,0.00,WUHU216DAVISVP2,2013-08-25 20:01:00,
2013-08-25 13:06:00,71.5,54.6,29.89,NNW,338,7.0,14.0,55,0.00,,,0.00,WUHU216DAVISVP2,2013-08-25 20:06:00,
2013-08-25 13:11:00,71.0,54.7,29.89,NW,325,0.0,11.0,56,0.00,,,0.00,WUHU216DAVISVP2,2013-08-25 20:11:00,
2013-08-25 13:16:00,71.1,54.8,29.89,NW,311,1.0,9.0,56,0.00,,,0.00,WUHU216DAVISVP2,2013-08-25 20:16:00,
2013-08-25 13:21:00,71.6,54.7,29.89,NNW,330,0.0,9.0,55,0.00,,,0.00,WUHU216DAVISVP2,2013-08-25 20:21:00,
2013-08-25 13:26:00,71.5,54.6,29.89,NNW,332,0.0,9.0,55,0.00,,,0.00,WUHU216DAVISVP2,2013-08-25 20:26:00,
2013-08-25 13:31:00,71.2,54.3,29.89,WNW,298,0.0,8.0,55,0.00,,,0.00,WUHU216DAVISVP2,2013-08-25 20:31:00,
2013-08-25 13:36:00,70.9,54.6,29.88,NNW,343,4.0,10.0,56,0.00,,,0.00,WUHU216DAVISVP2,2013-08-25 20:36:00,
2013-08-25 13:41:00,71.0,54.7,29.89,NNW,331,0.0,10.0,56,0.00,,,0.00,WUHU216DAVISVP2,2013-08-25 20:41:00,
2013-08-25 13:46:00,71.1,54.8,29.88,NW,312,0.0,4.0,56,0.00,,,0.00,WUHU216DAVISVP2,2013-08-25 20:46:00,
2013-08-25 13:51:00,70.9,55.1,29.88,NW,307,0.0,4.0,57,0.00,,,0.00,WUHU216DAVISVP2,2013-08-25 20:51:00,
2013-08-25 13:56:00,70.9,55.1,29.88,WNW,302,3.0,5.0,57,0.00,,,0.00,WUHU216DAVISVP2,2013-08-25 20:56:00,
2013-08-25 14:01:00,70.6,54.8,29.88,NW,312,0.0,6.0,57,0.00,,,0.00,WUHU216DAVISVP2,2013-08-25 21:01:00,
2013-08-25 14:06:00,70.5,54.7,29.88,NNW,333,1.0,6.0,57,0.00,,,0.00,WUHU216DAVISVP2,2013-08-25 21:06:00,
2013-08-25 14:11:00,70.3,55.0,29.88,NW,304,0.0,6.0,58,0.00,,,0.00,WUHU216DAVISVP2,2013-08-25 21:11:00,
2013-08-25 14:16:00,70.3,54.5,29.88,WNW,298,0.0,5.0,57,0.00,,,0.00,WUHU216DAVISVP2,2013-08-25 21:16:00,
2013-08-25 14:21:00,70.2,54.9,29.88,WNW,298,0.0,5.0,58,0.00,,,0.00,WUHU216DAVISVP2,2013-08-25 21:21:00,
2013-08-25 14:26:00,70.0,54.7,29.88,NW,326,0.0,4.0,58,0.00,,,0.00,WUHU216DAVISVP2,2013-08-25 21:26:00,
2013-08-25 14:31:00,69.8,54.5,29.87,NW,315,1.0,4.0,58,0.00,,,0.00,WUHU216DAVISVP2,2013-08-25 21:31:00,
2013-08-25 14:36:00,69.6,54.8,29.87,NW,322,0.0,4.0,59,0.00,,,0.00,WUHU216DAVISVP2,2013-08-25 21:36:00,
2013-08-25 14:41:00,69.5,54.7,29.87,NNW,334,0.0,5.0,59,0.00,,,0.00,WUHU216DAVISVP2,2013-08-25 21:41:00,
2013-08-25 14:46:00,69.6,54.8,29.87,NNW,334,0.0,5.0,59,0.00,,,0.00,WUHU216DAVISVP2,2013-08-25 21:46:00,
2013-08-25 14:51:00,69.5,54.7,29.87,NNW,333,0.0,1.0,59,0.00,,,0.00,WUHU216DAVISVP2,2013-08-25 21:51:00,
2013-08-25 14:56:00,69.4,54.6,29.87,NNW,331,0.0,4.0,59,0.00,,,0.00,WUHU216DAVISVP2,2013-08-25 21:56:00,
2013-08-25 15:01:00,69.2,54.4,29.87,NW,326,0.0,5.0,59,0.00,,,0.00,WUHU216DAVISVP2,2013-08-25 22:01:00,
2013-08-25 15:06:00,69.2,54.4,29.87,NW,321,0.0,5.0,59,0.00,,,0.00,WUHU216DAVISVP2,2013-08-25 22:06:00,
2013-08-25 15:11:00,69.1,54.3,29.87,NW,321,0.0,4.0,59,0.00,,,0.00,WUHU216DAVISVP2,2013-08-25 22:11:00,
2013-08-25 15:16:00,69.2,54.9,29.87,NW,321,0.0,1.0,60,0.00,,,0.00,WUHU216DAVISVP2,2013-08-25 22:16:00,
2013-08-25 15:21:00,69.3,54.5,29.87,NW,315,0.0,5.0,59,0.00,,,0.00,WUHU216DAVISVP2,2013-08-25 22:21:00,
2013-08-25 15:26:00,69.0,54.2,29.87,NW,310,4.0,5.0,59,0.00,,,0.00,WUHU216DAVISVP2,2013-08-25 22:26:00,
2013-08-25 15:31:00,68.8,54.5,29.87,WNW,287,0.0,7.0,60,0.00,,,0.00,WUHU216DAVISVP2,2013-08-25 22:31:00,
2013-08-25 15:36:00,68.5,54.2,29.87,WNW,288,0.0,7.0,60,0.00,,,0.00,WUHU216DAVISVP2,2013-08-25 22:36:00,
2013-08-25 15:41:00,68.3,54.5,29.87,WNW,288,1.0,3.0,61,0.00,,,0.00,WUHU216DAVISVP2,2013-08-25 22:41:00,
2013-08-25 15:46:00,68.3,54.5,29.87,WNW,288,0.0,3.0,61,0.00,,,0.00,WUHU216DAVISVP2,2013-08-25 22:46:00,
2013-08-25 15:51:00,68.3,54.0,29.87,WNW,288,0.0,3.0,60,0.00,,,0.00,WUHU216DAVISVP2,2013-08-25 22:51:00,
2013-08-25 15:56:00,68.4,54.1,29.88,WNW,288,0.0,1.0,60,0.00,,,0.00,WUHU216DAVISVP2,2013-08-25 22:56:00,
2013-08-25 16:01:00,68.4,53.7,29.88,WNW,288,0.0,0.0,59,0.00,,,0.00,WUHU216DAVISVP2,2013-08-25 23:01:00,
2013-08-25 16:06:00,68.6,53.9,29.88,WNW,288,0.0,0.0,59,0.00,,,0.00,WUHU216DAVISVP2,2013-08-25 23:06:00,
2013-08-25 16:11:00,68.6,53.9,29.88,WNW,288,0.0,1.0,59,0.00,,,0.00,WUHU216DAVISVP2,2013-08-25 23:11:00,
2013-08-25 16:16:00,68.7,54.4,29.88,WNW,287,0.0,1.0,60,0.00,,,0.00,WUHU216DAVISVP2,2013-08-25 23:16:00,
2013-08-25 16:21:00,68.6,55.2,29.88,WNW,288,0.0,0.0,62,0.00,,,0.00,WUHU216DAVISVP2,2013-08-25 23:21:00,
2013-08-25 16:26:00,68.3,55.0,29.88,WNW,287,0.0,0.0,62,0.00,,,0.00,WUHU216DAVISVP2,2013-08-25 23:26:00,
2013-08-25 16:31:00,68.0,55.1,29.88,WNW,288,0.0,0.0,63,0.00,,,0.00,WUHU216DAVISVP2,2013-08-25 23:31:00,
2013-08-25 16:36:00,67.7,56.1,29.88,WNW,288,0.0,0.0,66,0.00,,,0.00,WUHU216DAVISVP2,2013-08-25 23:36:00,
2013-08-25 16:41:00,67.3,55.7,29.88,WNW,288,0.0,0.0,66,0.00,,,0.00,WUHU216DAVISVP2,2013-08-25 23:41:00,
2013-08-25 16:46:00,66.9,56.6,29.88,WNW,287,0.0,0.0,69,0.00,,,0.00,WUHU216DAVISVP2,2013-08-25 23:46:00,
2013-08-25 16:51:00,66.4,56.5,29.88,WNW,288,0.0,0.0,70,0.01,,,0.01,WUHU216DAVISVP2,2013-08-25 23:51:00,
2013-08-25 16:56:00,65.8,57.8,29.88,WNW,287,0.0,0.0,75,0.01,,,0.01,WUHU216DAVISVP2,2013-08-25 23:56:00,
2013-08-25 17:01:00,65.4,58.1,29.88,WNW,287,0.0,0.0,77,0.01,,,0.01,WUHU216DAVISVP2,2013-08-26 00:01:00,
2013-08-25 17:06:00,65.2,57.9,29.88,WNW,288,0.0,0.0,77,0.01,,,0.01,WUHU216DAVISVP2,2013-08-26 00:06:00,
2013-08-25 17:11:00,65.1,58.5,29.88,WNW,287,0.0,0.0,79,0.01,,,0.01,WUHU216DAVISVP2,2013-08-26 00:11:00,
2013-08-25 17:16:00,65.0,58.1,29.87,WNW,288,0.0,0.0,78,0.01,,,0.01,WUHU216DAVISVP2,2013-08-26 00:16:00,
2013-08-25 17:21:00,65.0,58.4,29.87,WNW,287,0.0,0.0,79,0.01,,,0.01,WUHU216DAVISVP2,2013-08-26 00:21:00,
2013-08-25 17:26:00,65.0,59.1,29.87,WNW,288,0.0,0.0,81,0.02,,,0.02,WUHU216DAVISVP2,2013-08-26 00:26:00,
2013-08-25 17:31:00,65.0,59.4,29.87,WNW,287,0.0,0.0,82,0.02,,,0.02,WUHU216DAVISVP2,2013-08-26 00:31:00,
2013-08-25 17:36:00,64.9,59.0,29.87,WNW,288,0.0,0.0,81,0.02,,,0.02,WUHU216DAVISVP2,2013-08-26 00:36:00,
2013-08-25 17:41:00,64.9,59.3,29.87,WNW,288,0.0,0.0,82,0.02,,,0.02,WUHU216DAVISVP2,2013-08-26 00:41:00,
2013-08-25 17:46:00,64.9,59.3,29.87,WNW,288,0.0,0.0,82,0.02,,,0.02,WUHU216DAVISVP2,2013-08-26 00:46:00,
2013-08-25 17:51:00,64.8,59.2,29.87,WNW,287,0.0,0.0,82,0.01,,,0.02,WUHU216DAVISVP2,2013-08-26 00:51:00,
2013-08-25 17:56:00,64.8,59.2,29.87,WNW,287,0.0,0.0,82,0.01,,,0.02,WUHU216DAVISVP2,2013-08-26 00:56:00,
2013-08-25 18:01:00,64.7,59.1,29.87,WNW,288,0.0,0.0,82,0.01,,,0.02,WUHU216DAVISVP2,2013-08-26 01:01:00,
2013-08-25 18:06:00,64.7,58.1,29.87,WNW,288,0.0,0.0,79,0.01,,,0.02,WUHU216DAVISVP2,2013-08-26 01:06:00,
2013-08-25 18:11:00,64.8,58.6,29.87,WNW,288,0.0,0.0,80,0.01,,,0.02,WUHU216DAVISVP2,2013-08-26 01:11:00,
2013-08-25 18:16:00,64.8,58.2,29.87,WNW,287,0.0,0.0,79,0.01,,,0.02,WUHU216DAVISVP2,2013-08-26 01:16:00,
2013-08-25 18:21:00,64.7,58.5,29.87,WNW,288,0.0,0.0,80,0.01,,,0.02,WUHU216DAVISVP2,2013-08-26 01:21:00,
2013-08-25 18:26:00,64.7,58.5,29.87,WNW,288,0.0,0.0,80,0.00,,,0.02,WUHU216DAVISVP2,2013-08-26 01:26:00,
2013-08-25 18:31:00,64.8,59.2,29.87,WNW,287,0.0,0.0,82,0.00,,,0.02,WUHU216DAVISVP2,2013-08-26 01:31:00,
2013-08-25 18:36:00,64.8,59.2,29.87,WNW,288,0.0,0.0,82,0.00,,,0.02,WUHU216DAVISVP2,2013-08-26 01:36:00,
2013-08-25 18:41:00,64.8,58.9,29.87,WNW,287,0.0,0.0,81,0.00,,,0.02,WUHU216DAVISVP2,2013-08-26 01:41:00,
2013-08-25 18:46:00,64.8,59.2,29.86,WNW,288,0.0,0.0,82,0.00,,,0.02,WUHU216DAVISVP2,2013-08-26 01:46:00,
2013-08-25 18:51:00,64.7,58.8,29.86,WNW,288,0.0,0.0,81,0.00,,,0.02,WUHU216DAVISVP2,2013-08-26 01:51:00,
2013-08-25 18:56:00,64.8,59.2,29.86,WNW,288,0.0,0.0,82,0.00,,,0.02,WUHU216DAVISVP2,2013-08-26 01:56:00,
2013-08-25 19:01:00,64.8,59.2,29.86,WNW,288,0.0,0.0,82,0.00,,,0.02,WUHU216DAVISVP2,2013-08-26 02:01:00,
2013-08-25 19:06:00,64.9,59.6,29.87,WNW,287,0.0,0.0,83,0.00,,,0.02,WUHU216DAVISVP2,2013-08-26 02:06:00,
2013-08-25 19:11:00,64.8,58.9,29.87,WNW,288,0.0,0.0,81,0.00,,,0.02,WUHU216DAVISVP2,2013-08-26 02:11:00,
2013-08-25 19:16:00,64.7,58.8,29.87,WNW,288,0.0,0.0,81,0.00,,,0.02,WUHU216DAVISVP2,2013-08-26 02:16:00,
2013-08-25 19:21:00,64.7,59.1,29.87,WNW,287,0.0,0.0,82,0.00,,,0.02,WUHU216DAVISVP2,2013-08-26 02:21:00,
2013-08-25 19:26:00,64.6,58.7,29.87,WNW,288,0.0,0.0,81,0.00,,,0.02,WUHU216DAVISVP2,2013-08-26 02:26:00,
2013-08-25 19:31:00,64.7,59.1,29.87,WNW,287,0.0,0.0,82,0.00,,,0.02,WUHU216DAVISVP2,2013-08-26 02:31:00,
2013-08-25 19:36:00,64.7,59.1,29.88,WNW,288,0.0,0.0,82,0.00,,,0.02,WUHU216DAVISVP2,2013-08-26 02:36:00,
2013-08-25 19:41:00,64.6,58.4,29.87,WNW,287,0.0,0.0,80,0.00,,,0.02,WUHU216DAVISVP2,2013-08-26 02:41:00,
2013-08-25 19:46:00,64.6,59.0,29.87,WNW,288,0.0,0.0,82,0.00,,,0.02,WUHU216DAVISVP2,2013-08-26 02:46:00,
2013-08-25 19:51:00,64.5,58.9,29.88,WNW,287,0.0,0.0,82,0.00,,,0.02,WUHU216DAVISVP2,2013-08-26 02:51:00,
2013-08-25 19:56:00,64.4,58.8,29.88,WNW,288,0.0,0.0,82,0.00,,,0.02,WUHU216DAVISVP2,2013-08-26 02:56:00,
2013-08-25 20:01:00,64.3,58.7,29.87,WNW,288,0.0,0.0,82,0.00,,,0.02,WUHU216DAVISVP2,2013-08-26 03:01:00,
2013-08-25 20:06:00,64.2,58.6,29.87,WNW,287,0.0,0.0,82,0.00,,,0.02,WUHU216DAVISVP2,2013-08-26 03:06:00,
2013-08-25 20:11:00,64.1,58.5,29.87,WNW,288,0.0,0.0,82,0.00,,,0.02,WUHU216DAVISVP2,2013-08-26 03:11:00,
2013-08-25 20:16:00,64.1,58.5,29.87,WNW,287,0.0,0.0,82,0.00,,,0.02,WUHU216DAVISVP2,2013-08-26 03:16:00,
2013-08-25 20:21:00,64.0,58.4,29.87,WNW,288,0.0,0.0,82,0.00,,,0.02,WUHU216DAVISVP2,2013-08-26 03:21:00,
2013-08-25 20:26:00,64.0,58.1,29.87,WNW,288,0.0,0.0,81,0.00,,,0.02,WUHU216DAVISVP2,2013-08-26 03:26:00,
2013-08-25 20:31:00,63.9,58.0,29.87,WNW,287,0.0,0.0,81,0.00,,,0.02,WUHU216DAVISVP2,2013-08-26 03:31:00,
2013-08-25 20:36:00,63.9,58.3,29.87,WNW,288,0.0,0.0,82,0.00,,,0.02,WUHU216DAVISVP2,2013-08-26 03:36:00,
2013-08-25 20:41:00,63.8,57.9,29.87,WNW,288,0.0,0.0,81,0.00,,,0.02,WUHU216DAVISVP2,2013-08-26 03:41:00,
2013-08-25 20:46:00,63.8,57.9,29.87,WNW,288,0.0,0.0,81,0.00,,,0.02,WUHU216DAVISVP2,2013-08-26 03:46:00,
2013-08-25 20:51:00,63.7,57.5,29.87,WNW,287,0.0,0.0,80,0.00,,,0.02,WUHU216DAVISVP2,2013-08-26 03:51:00,
2013-08-25 20:56:00,63.7,57.1,29.87,WNW,287,0.0,0.0,79,0.00,,,0.02,WUHU216DAVISVP2,2013-08-26 03:56:00,
2013-08-25 21:01:00,63.7,57.1,29.87,WNW,287,0.0,0.0,79,0.00,,,0.02,WUHU216DAVISVP2,2013-08-26 04:01:00,
2013-08-25 21:06:00,63.8,57.2,29.87,WNW,287,0.0,0.0,79,0.00,,,0.02,WUHU216DAVISVP2,2013-08-26 04:06:00,
2013-08-25 21:11:00,63.7,57.1,29.87,WNW,287,0.0,0.0,79,0.00,,,0.02,WUHU216DAVISVP2,2013-08-26 04:11:00,
2013-08-25 21:16:00,63.6,57.0,29.88,WNW,288,0.0,0.0,79,0.00,,,0.02,WUHU216DAVISVP2,2013-08-26 04:16:00,
2013-08-25 21:21:00,63.6,57.0,29.88,WNW,287,0.0,0.0,79,0.00,,,0.02,WUHU216DAVISVP2,2013-08-26 04:21:00,
2013-08-25 21:26:00,63.7,57.1,29.88,WNW,287,0.0,0.0,79,0.00,,,0.02,WUHU216DAVISVP2,2013-08-26 04:26:00,
2013-08-25 21:31:00,63.6,57.0,29.88,WNW,288,0.0,0.0,79,0.00,,,0.02,WUHU216DAVISVP2,2013-08-26 04:31:00,
2013-08-25 21:36:00,63.6,57.4,29.88,WNW,288,0.0,1.0,80,0.00,,,0.02,WUHU216DAVISVP2,2013-08-26 04:36:00,
2013-08-25 21:41:00,63.6,57.4,29.89,WNW,288,0.0,1.0,80,0.00,,,0.02,WUHU216DAVISVP2,2013-08-26 04:41:00,
2013-08-25 21:46:00,63.6,57.0,29.89,WNW,288,0.0,0.0,79,0.00,,,0.02,WUHU216DAVISVP2,2013-08-26 04:46:00,
2013-08-25 21:51:00,63.6,57.0,29.89,WNW,288,0.0,0.0,79,0.00,,,0.02,WUHU216DAVISVP2,2013-08-26 04:51:00,
2013-08-25 21:56:00,63.7,57.1,29.89,WNW,288,0.0,0.0,79,0.00,,,0.02,WUHU216DAVISVP2,2013-08-26 04:56:00,
2013-08-25 22:01:00,63.6,56.7,29.89,WNW,287,0.0,0.0,78,0.00,,,0.02,WUHU216DAVISVP2,2013-08-26 05:01:00,
2013-08-25 22:06:00,63.6,56.7,29.88,WNW,288,0.0,0.0,78,0.00,,,0.02,WUHU216DAVISVP2,2013-08-26 05:06:00,
2013-08-25 22:11:00,63.6,57.0,29.88,WNW,287,0.0,1.0,79,0.00,,,0.02,WUHU216DAVISVP2,2013-08-26 05:11:00,
2013-08-25 22:16:00,63.6,56.7,29.88,WNW,288,0.0,1.0,78,0.00,,,0.02,WUHU216DAVISVP2,2013-08-26 05:16:00,
2013-08-25 22:21:00,63.5,56.6,29.88,WNW,288,0.0,2.0,78,0.00,,,0.02,WUHU216DAVISVP2,2013-08-26 05:21:00,
2013-08-25 22:26:00,63.4,56.5,29.88,WNW,288,0.0,2.0,78,0.00,,,0.02,WUHU216DAVISVP2,2013-08-26 05:26:00,
2013-08-25 22:31:00,63.3,56.4,29.88,WNW,287,0.0,0.0,78,0.00,,,0.02,WUHU216DAVISVP2,2013-08-26 05:31:00,
2013-08-25 22:36:00,63.2,56.7,29.88,WNW,288,0.0,0.0,79,0.00,,,0.02,WUHU216DAVISVP2,2013-08-26 05:36:00,
2013-08-25 22:41:00,63.1,56.6,29.88,WNW,287,0.0,0.0,79,0.00,,,0.02,WUHU216DAVISVP2,2013-08-26 05:41:00,
2013-08-25 22:46:00,63.1,56.9,29.88,WNW,288,0.0,0.0,80,0.00,,,0.02,WUHU216DAVISVP2,2013-08-26 05:46:00,
2013-08-25 22:51:00,63.1,57.2,29.88,WNW,287,0.0,0.0,81,0.00,,,0.02,WUHU216DAVISVP2,2013-08-26 05:51:00,
2013-08-25 22:56:00,63.0,57.1,29.87,WNW,287,0.0,0.0,81,0.00,,,0.02,WUHU216DAVISVP2,2013-08-26 05:56:00,
2013-08-25 23:01:00,63.0,57.5,29.87,WNW,288,0.0,0.0,82,0.00,,,0.02,WUHU216DAVISVP2,2013-08-26 06:01:00,
2013-08-25 23:06:00,63.0,57.5,29.87,WNW,288,0.0,0.0,82,0.00,,,0.02,WUHU216DAVISVP2,2013-08-26 06:06:00,
2013-08-25 23:11:00,63.0,57.5,29.87,WNW,288,0.0,1.0,82,0.00,,,0.02,WUHU216DAVISVP2,2013-08-26 06:11:00,
2013-08-25 23:16:00,62.9,57.4,29.87,WNW,288,0.0,1.0,82,0.00,,,0.02,WUHU216DAVISVP2,2013-08-26 06:16:00,
2013-08-25 23:21:00,62.9,57.4,29.87,WNW,288,0.0,1.0,82,0.00,,,0.02,WUHU216DAVISVP2,2013-08-26 06:21:00,
2013-08-25 23:26:00,62.9,57.4,29.87,WNW,288,0.0,1.0,82,0.00,,,0.02,WUHU216DAVISVP2,2013-08-26 06:26:00,
2013-08-25 23:31:00,62.8,57.3,29.87,WNW,288,0.0,1.0,82,0.00,,,0.02,WUHU216DAVISVP2,2013-08-26 06:31:00,
2013-08-25 23:36:00,62.8,57.6,29.87,WNW,287,0.0,1.0,83,0.00,,,0.02,WUHU216DAVISVP2,2013-08-26 06:36:00,
2013-08-25 23:41:00,62.7,57.5,29.87,WNW,288,0.0,0.0,83,0.00,,,0.02,WUHU216DAVISVP2,2013-08-26 06:41:00,
2013-08-25 23:46:00,62.7,57.5,29.87,WNW,287,0.0,0.0,83,0.00,,,0.02,WUHU216DAVISVP2,2013-08-26 06:46:00,
2013-08-25 23:51:00,62.6,57.4,29.87,WNW,288,0.0,0.0,83,0.00,,,0.02,WUHU216DAVISVP2,2013-08-26 06:51:00,
2013-08-25 23:56:00,62.5,57.6,29.87,WNW,288,0.0,0.0,84,0.00,,,0.02,WUHU216DAVISVP2,2013-08-26 06:56:00,